sat.trackr.live / text

‹ back to catalog

STARLINK-5117

NORAD 54172 · 2022-141R

PAYLOAD ACTIVE UNKNOWN

§ Identity

Operator
Country
US
Launch date
2022-10-28
Launch site
AFWTR
Launch vehicle
Mass (kg)
RCS (m²)

Purposes: comms

External: N2YO · Heavens-Above · Gunter

§ Orbital elements

Epoch: 2026-05-25T00:51:21.570048Z

Period
95.44 min
Inclination
53.2149°
Eccentricity
0.0001595
Mean motion
15.08844840 rev/d
Perigee alt
538.6 km
Apogee alt
540.8 km
Semi-major
6,917.9 km
B*
-6.8150e-5
RAAN
21.3617°
Arg perigee
88.5908°
Mean anomaly
271.5267°
Rev number
19,738

§ Raw data

STARLINK-51171 54172U 22141R   26145.03566632 -.00001373  00000+0 -68150-4 0  99972 54172  53.2149  21.3617 0001595  88.5908 271.5267 15.08844840197383

JSON: /api/v1/satellites/54172 · /tle

For live sub-satellite position, see the globe view (requires WebGL).

§ Visibility from observer

Set your observer location to see the next 7 days of passes ≥ 10°. The values pass through the URL so the page stays shareable.

No JS? Fill the form by hand. The geolocation button needs JavaScript.